Location: Bismarck
(46.7731°N, 100.8200°W)
Time: 06:52:15
(UTC-06:00)

Amateur Radio Satellites - All Passes

Search period start: 16 December 2017 06:22
Search period end: 17 December 2017 06:22
Location: Bismarck, 46.7731°N, 100.8200°W

Satellite Date Start Highest point End Downlink Frequencies (MHz)
Time Altitude Azimuth
FO-29 16 Dec 06:28:17 06:34:06 24° 54° (NE) 06:39:51 435.910
XW-2C 16 Dec 06:36:35 06:40:21 48° 99° (E) 06:44:04 145.795 - 145.815
CUTE-I 16 Dec 07:00:02 07:05:20 61° 101° (ESE) 07:10:34 437.470
BEESAT 2 16 Dec 07:02:37 07:05:07 16° 248° (WSW) 07:07:33 435.950
HO-68 16 Dec 07:09:32 07:16:05 37° 96° (E) 07:22:35 435.675
UWE-3 16 Dec 07:14:04 07:15:54 12° 88° (E) 07:17:45 435.000/436.395/437.385
NO-84 16 Dec 07:14:05 07:17:05 68° 143° (SE) 07:20:20 435.350 FM
LilacSat-2 16 Dec 07:15:13 07:19:03 55° 287° (WNW) 07:22:50 437.200
CUBEBUG 2 16 Dec 07:16:48 07:20:11 22° 93° (E) 07:23:37 437.445
SEEDS 16 Dec 07:20:32 07:24:02 24° 94° (E) 07:27:30 437.485
NUDT-PHONESAT 16 Dec 07:23:56 07:27:41 68° 286° (WNW) 07:31:24 437.300
XW-2D 16 Dec 07:27:17 07:30:56 42° 289° (WNW) 07:34:34 145.860 - 145.880
DOVE 4 16 Dec 07:29:37 07:31:32 13° 303° (WNW) 07:33:26 437.250
KAITUO 1B 16 Dec 07:30:52 07:34:35 54° 287° (WNW) 07:38:17 145.475/437.950
XW-2A 16 Dec 07:33:11 07:34:28 12° 90° (E) 07:35:45 145.665 - 145.685
AAUSAT CUBESAT 2 16 Dec 07:34:48 07:37:18 15° 90° (E) 07:39:46 437.432
ZACube-1 16 Dec 07:35:37 07:36:58 11° 88° (E) 07:38:18 437.345
O/OREOS (USA 219) 16 Dec 07:39:04 07:41:38 15° 99° (E) 07:44:12 437.305
XW-2B 16 Dec 07:43:27 07:46:50 30° 291° (WNW) 07:50:12 145.730 - 145.750
STRAND 1 16 Dec 07:45:48 07:50:46 51° 260° (W) 07:55:46 437.568
CUTE 1.7 + AOD 2 16 Dec 07:46:26 07:50:45 73° 102° (ESE) 07:55:01 437.475
XW-2F 16 Dec 07:54:07 07:57:16 24° 293° (WNW) 08:00:25 145.980 - 146.000
AO-85 16 Dec 07:56:27 08:00:15 23° 246° (WSW) 08:04:13 145.980
TIGRISAT 16 Dec 08:04:48 08:05:19 10° 57° (ENE) 08:05:51 435.000
AO-73 16 Dec 08:06:48 08:10:09 21° 93° (E) 08:13:31 145.935
UNISAT 6 16 Dec 08:07:21 08:09:01 12° 59° (ENE) 08:10:40 437.425
FO-29 16 Dec 08:10:18 08:18:08 86° 74° (ENE) 08:25:58 435.910
XW-2C 16 Dec 08:11:44 08:14:09 16° 297° (WNW) 08:16:33 145.795 - 145.815
CUTE-I 16 Dec 08:40:54 08:44:57 22° 300° (WNW) 08:48:58 437.470
UWE-3 16 Dec 08:48:31 08:52:49 73° 285° (WNW) 08:57:14 435.000/436.395/437.385
NO-84 16 Dec 08:51:47 08:54:35 27° 344° (NNW) 08:57:35 435.350 FM
CUBEBUG 2 16 Dec 08:52:57 08:56:54 38° 290° (WNW) 09:00:58 437.445
SEEDS 16 Dec 08:55:55 08:59:47 34° 291° (WNW) 09:03:37 437.485
HO-68 16 Dec 08:57:08 09:04:00 50° 296° (WNW) 09:10:48 435.675
XW-2A 16 Dec 09:04:07 09:07:27 48° 287° (WNW) 09:10:46 145.665 - 145.685
AAUSAT CUBESAT 2 16 Dec 09:08:59 09:13:05 54° 288° (WNW) 09:17:07 437.432
ZACube-1 16 Dec 09:09:24 09:13:46 82° 286° (WNW) 09:18:13 437.345
O/OREOS (USA 219) 16 Dec 09:15:55 09:20:28 67° 297° (WNW) 09:25:03 437.305
CUTE 1.7 + AOD 2 16 Dec 09:23:50 09:26:00 14° 300° (WNW) 09:28:10 437.475
Oscar 11 16 Dec 09:25:55 09:30:18 87° 104° (ESE) 09:34:40 .
TIGRISAT 16 Dec 09:37:01 09:41:18 82° 74° (ENE) 09:45:34 435.000
UNISAT 6 16 Dec 09:40:49 09:45:06 83° 257° (WSW) 09:49:24 437.425
Max Valier Satellite 16 Dec 09:41:09 09:43:43 17° 92° (E) 09:46:16 145.860
AO-73 16 Dec 09:42:25 09:46:32 43° 289° (WNW) 09:50:44 145.935
PRISM 16 Dec 09:45:58 09:49:46 35° 68° (ENE) 09:53:34 437.425
DELFI C3 16 Dec 09:53:30 09:57:09 35° 97° (E) 10:00:45 145.870
FO-29 16 Dec 09:58:02 10:03:56 23° 273° (W) 10:09:53 435.910
EO-88 16 Dec 10:04:30 10:07:24 22° 94° (E) 10:10:17 145.990 - 145.960
AIST 2D 16 Dec 10:06:37 10:09:04 18° 66° (ENE) 10:11:33 435.315
POLYITAN 1 16 Dec 10:21:38 10:23:21 12° 59° (ENE) 10:25:04 437.675
NO-84 16 Dec 10:29:57 10:32:39 21° 5° (N) 10:35:29 435.350 FM
nSIGHT-1 16 Dec 10:34:44 10:35:55 12° 133° (SE) 10:37:06 .
QB50P2 16 Dec 10:45:38 10:48:56 23° 65° (ENE) 10:52:15 145.880/145.840
HO-68 16 Dec 10:47:19 10:50:06 13° 317° (NW) 10:52:53 435.675
DUCHIFAT 1 16 Dec 10:48:16 10:51:01 17° 62° (ENE) 10:53:47 145.980
ZACube-1 16 Dec 10:48:20 10:49:20 11° 302° (WNW) 10:50:20 437.345
O/OREOS (USA 219) 16 Dec 10:59:09 11:00:48 12° 318° (NW) 11:02:28 437.305
Oscar 11 16 Dec 11:04:03 11:05:46 12° 302° (WNW) 11:07:28 .
Max Valier Satellite 16 Dec 11:14:11 11:17:40 37° 289° (WNW) 11:21:08 145.860
NANOSAT C BR1 16 Dec 11:14:35 11:18:22 35° 69° (ENE) 11:22:11 145.865
TIGRISAT 16 Dec 11:17:59 11:18:34 10° 273° (W) 11:19:09 435.000
PRISM 16 Dec 11:21:45 11:25:06 23° 266° (W) 11:28:27 437.425
ISS 16 Dec 11:21:53 11:24:34 23° 139° (SE) 11:27:15 437.550
BUGSAT 1 16 Dec 11:23:52 11:24:13 10° 58° (ENE) 11:24:33 437.445
DELFI C3 16 Dec 11:28:39 11:31:41 21° 295° (WNW) 11:34:42 145.870
EO-79 16 Dec 11:30:51 11:34:57 58° 73° (ENE) 11:39:05 145.935-145.965
EO-88 16 Dec 11:37:49 11:41:02 29° 291° (WNW) 11:44:15 145.990 - 145.960
AIST 2D 16 Dec 11:38:48 11:42:00 33° 263° (W) 11:45:15 435.315
ESTCUBE 1 16 Dec 11:50:04 11:54:20 38° 97° (E) 11:58:34 437.505/2401.250
POLYITAN 1 16 Dec 11:54:20 11:58:31 80° 257° (WSW) 12:02:43 437.675
AO-7 16 Dec 11:55:34 11:56:38 10° 29° (NNE) 11:57:43 .
LO-87 16 Dec 12:01:41 12:05:14 70° 102° (ESE) 12:08:46 145.935 - 145.965
SPROUT 16 Dec 12:05:41 12:07:55 14° 89° (E) 12:10:09 437.525
NO-84 16 Dec 12:07:08 12:10:33 42° 25° (NNE) 12:14:15 435.350 FM
nSIGHT-1 16 Dec 12:08:24 12:11:36 70° 152° (SSE) 12:14:49 .
Oscar 19 16 Dec 12:09:34 12:13:35 24° 61° (ENE) 12:17:37 437.125/150
AO-91 16 Dec 12:15:53 12:19:23 21° 66° (ENE) 12:22:38 145.960
QB50P2 16 Dec 12:20:36 12:24:31 37° 262° (W) 12:28:27 145.880/145.840
DUCHIFAT 1 16 Dec 12:22:16 12:26:19 51° 260° (W) 12:30:23 145.980
YUBILEINY 16 Dec 12:22:45 12:28:07 17° 53° (NE) 12:33:27 435.215
NANOSAT C BR1 16 Dec 12:50:47 12:54:09 23° 266° (W) 12:57:33 145.865
BUGSAT 1 16 Dec 12:54:51 12:58:53 88° 89° (E) 13:02:56 437.445
ISS 16 Dec 12:57:32 13:00:49 68° 337° (NNW) 13:04:06 437.550
RS-15 16 Dec 13:02:20 13:10:01 20° 96° (E) 13:17:40 29.354- 29.394
Gurwin Techsat 1B 16 Dec 13:05:52 13:10:59 51° 69° (ENE) 13:16:09 435.225
EO-79 16 Dec 13:08:46 13:11:05 14° 270° (W) 13:13:25 145.935-145.965
VELOX 1 16 Dec 13:14:50 13:19:04 42° 99° (E) 13:23:13 145.980
ESTCUBE 1 16 Dec 13:27:12 13:30:57 26° 295° (WNW) 13:34:42 437.505/2401.250
LO-87 16 Dec 13:37:45 13:38:06 10° 299° (WNW) 13:38:26 145.935 - 145.965
AO-7 16 Dec 13:39:42 13:46:52 34° 53° (NE) 13:54:04 .
SPROUT 16 Dec 13:40:00 13:44:12 62° 287° (WNW) 13:48:23 437.525
M-CUBED/EXP-1 PRIME 16 Dec 13:43:46 13:46:42 17° 54° (NE) 13:49:41 437.505
NO-84 16 Dec 13:44:20 13:47:51 40° 222° (SW) 13:51:37 435.350 FM
nSIGHT-1 16 Dec 13:44:56 13:47:59 37° 350° (N) 13:51:02 .
UKube-1 16 Dec 13:45:45 13:47:41 13° 89° (E) 13:49:36 .
Oscar 19 16 Dec 13:47:31 13:52:33 54° 260° (W) 13:57:38 437.125/150
AO-91 16 Dec 13:51:01 13:55:38 47° 260° (W) 13:59:49 145.960
DX 1 16 Dec 14:04:19 14:08:11 31° 96° (E) 14:12:03 434.975-435.025
50 SAT 16 Dec 14:06:04 14:08:52 29° 97° (E) 14:11:39 437.505
YUBILEINY 16 Dec 14:18:05 14:26:55 68° 77° (ENE) 14:35:38 435.215
ISS 16 Dec 14:34:36 14:37:38 33° 357° (N) 14:40:42 437.550
Gurwin Techsat 1B 16 Dec 14:46:56 14:51:12 24° 267° (W) 14:55:31 435.225
VELOX 1 16 Dec 14:51:48 14:55:15 22° 297° (WNW) 14:58:39 145.980
ITUPSAT 1 16 Dec 15:02:32 15:04:54 14° 89° (E) 15:07:17 437.325
ITAMSAT 1 16 Dec 15:04:02 15:09:04 52° 69° (ENE) 15:14:07 435.822/435.867
RS-15 16 Dec 15:08:04 15:20:16 71° 119° (ESE) 15:32:20 29.354- 29.394
M-CUBED/EXP-1 PRIME 16 Dec 15:16:05 15:20:29 73° 251° (WSW) 15:25:07 437.505
UKube-1 16 Dec 15:19:52 15:24:11 70° 287° (WNW) 15:28:27 .
SO-50 16 Dec 15:20:30 15:24:36 36° 118° (ESE) 15:28:45 436.795
nSIGHT-1 16 Dec 15:21:37 15:24:39 37° 10° (N) 15:27:41 .
DOVE 4 16 Dec 15:21:41 15:25:05 18° 61° (ENE) 15:28:25 437.250
MOZHAYETS 4 16 Dec 15:29:21 15:33:39 36° 97° (E) 15:37:55
AO-7 16 Dec 15:30:50 15:39:06 69° 255° (WSW) 15:47:26 .
50 SAT 16 Dec 15:38:32 15:40:36 16° 295° (WNW) 15:42:38 437.505
DX 1 16 Dec 15:40:33 15:44:19 29° 294° (WNW) 15:48:03 434.975-435.025
BEESAT 16 Dec 16:08:42 16:13:25 58° 101° (ESE) 16:18:06 436.000
ISS 16 Dec 16:11:20 16:14:34 49° 18° (NNE) 16:17:47 437.550
YUBILEINY 16 Dec 16:15:45 16:23:01 30° 279° (W) 16:30:14 435.215
LilacSat-2 16 Dec 16:28:16 16:29:20 11° 60° (ENE) 16:30:24 437.200
ITUPSAT 1 16 Dec 16:38:30 16:43:18 77° 286° (WNW) 16:48:04 437.325
XW-2D 16 Dec 16:38:39 16:40:33 13° 62° (ENE) 16:42:27 145.860 - 145.880
KAITUO 1B 16 Dec 16:42:36 16:43:08 10° 59° (ENE) 16:43:39 145.475/437.950
ITAMSAT 1 16 Dec 16:44:41 16:48:49 23° 267° (W) 16:52:57 435.822/435.867
CUTE-I 16 Dec 16:46:35 16:50:33 21° 59° (ENE) 16:54:31 437.470
XW-2B 16 Dec 16:53:45 16:56:23 18° 64° (ENE) 16:59:03 145.730 - 145.750
DOVE 4 16 Dec 16:56:58 17:02:13 75° 258° (WSW) 17:07:18 437.250
nSIGHT-1 16 Dec 16:57:49 17:01:03 73° 208° (SSW) 17:04:15 .
CUBESAT XI-V 16 Dec 16:58:09 17:02:53 71° 102° (ESE) 17:07:35 437.345
SO-50 16 Dec 17:00:58 17:05:04 34° 318° (NW) 17:09:15 436.795
XW-2F 16 Dec 17:03:30 17:06:25 22° 66° (ENE) 17:09:22 145.980 - 146.000
KKS-1 16 Dec 17:04:14 17:07:03 16° 91° (E) 17:09:50 437.445
MOZHAYETS 4 16 Dec 17:06:44 17:10:39 28° 295° (WNW) 17:14:34
XW-2C 16 Dec 17:20:18 17:23:46 34° 70° (ENE) 17:27:15 145.795 - 145.815
RS-15 16 Dec 17:21:45 17:33:37 49° 326° (NW) 17:45:15 29.354- 29.394
AO-7 16 Dec 17:29:18 17:33:25 14° 275° (W) 17:37:34 .
STARS 16 Dec 17:40:57 17:43:36 16° 91° (E) 17:46:15 437.465
HO-68 16 Dec 17:41:12 17:47:42 38° 60° (ENE) 17:54:11 435.675
O/OREOS (USA 219) 16 Dec 17:43:58 17:48:19 46° 60° (ENE) 17:52:38 437.305
BEESAT 16 Dec 17:47:21 17:50:46 20° 299° (WNW) 17:54:11 436.000
ISS 16 Dec 17:47:55 17:51:01 37° 216° (SW) 17:54:04 437.550
LilacSat-2 16 Dec 17:59:11 18:03:00 77° 258° (WSW) 18:06:52 437.200
NUDT-PHONESAT 16 Dec 18:04:57 18:08:38 78° 77° (ENE) 18:12:23 437.300
XW-2D 16 Dec 18:10:30 18:14:14 59° 260° (W) 18:18:02 145.860 - 145.880
KAITUO 1B 16 Dec 18:12:44 18:16:29 80° 258° (WSW) 18:20:17 145.475/437.950
UWE-3 16 Dec 18:14:03 18:16:16 14° 61° (ENE) 18:18:28 435.000/436.395/437.385
SEEDS 16 Dec 18:14:46 18:18:13 25° 66° (ENE) 18:21:42 437.485
CUBEBUG 2 16 Dec 18:17:45 18:21:11 25° 67° (ENE) 18:24:37 437.445
ITUPSAT 1 16 Dec 18:18:37 18:20:18 12° 305° (NW) 18:22:00 437.325
CUTE-I 16 Dec 18:24:48 18:30:07 65° 258° (WSW) 18:35:28 437.470
PCSat 16 Dec 18:26:24 18:31:18 37° 113° (ESE) 18:36:16 145.827
XW-2B 16 Dec 18:26:42 18:30:16 40° 262° (W) 18:33:54 145.730 - 145.750
AAUSAT CUBESAT 2 16 Dec 18:27:43 18:30:16 16° 62° (ENE) 18:32:49 437.432
ZACube-1 16 Dec 18:34:22 18:36:10 13° 59° (ENE) 18:37:59 437.345
nSIGHT-1 16 Dec 18:35:21 18:36:45 12° 226° (SW) 18:38:09 .
CUBESAT XI-V 16 Dec 18:36:48 18:39:42 16° 300° (WNW) 18:42:35 437.345
XW-2F 16 Dec 18:36:55 18:40:20 32° 264° (W) 18:43:49 145.980 - 146.000
KKS-1 16 Dec 18:39:36 18:43:57 57° 288° (WNW) 18:48:17 437.445
DOVE 4 16 Dec 18:39:54 18:40:38 10° 275° (W) 18:41:22 437.250
CUTE 1.7 + AOD 2 16 Dec 18:41:18 18:45:32 72° 74° (ENE) 18:49:49 437.475
SO-50 16 Dec 18:45:26 18:46:54 11° 341° (NNW) 18:48:21 436.795
Oscar 11 16 Dec 18:50:15 18:51:51 12° 58° (ENE) 18:53:28 .
XW-2C 16 Dec 18:55:13 18:58:02 20° 267° (W) 19:00:53 145.795 - 145.815
AO-73 16 Dec 19:05:14 19:08:25 22° 65° (ENE) 19:11:39 145.935
STARS 16 Dec 19:16:01 19:20:18 57° 288° (WNW) 19:24:35 437.465
O/OREOS (USA 219) 16 Dec 19:24:03 19:27:24 21° 258° (WSW) 19:30:43 437.305
HO-68 16 Dec 19:28:18 19:35:15 51° 260° (W) 19:42:15 435.675
XW-2A 16 Dec 19:37:10 19:40:30 81° 76° (ENE) 19:43:54 145.665 - 145.685
RS-15 16 Dec 19:39:10 19:49:49 33° 358° (N) 20:00:06 29.354- 29.394
UWE-3 16 Dec 19:48:07 19:52:13 64° 258° (WSW) 19:56:22 435.000/436.395/437.385
SEEDS 16 Dec 19:49:51 19:53:44 35° 264° (W) 19:57:40 437.485
STRAND 1 16 Dec 19:53:09 19:58:01 43° 98° (E) 20:02:52 437.568
CUBEBUG 2 16 Dec 19:53:57 19:57:42 32° 264° (W) 20:01:27 437.445
AAUSAT CUBESAT 2 16 Dec 20:01:08 20:05:16 58° 260° (W) 20:09:25 437.432
ZACube-1 16 Dec 20:07:45 20:11:51 75° 257° (WSW) 20:16:03 437.345
BEESAT 3 16 Dec 20:08:37 20:12:27 47° 120° (ESE) 20:16:19 437.485
PCSat 16 Dec 20:09:32 20:14:39 41° 312° (NW) 20:19:49 145.827
CUTE 1.7 + AOD 2 16 Dec 20:20:11 20:21:52 12° 272° (W) 20:23:34 437.475
Oscar 11 16 Dec 20:22:59 20:27:18 88° 249° (WSW) 20:31:41 .
Max Valier Satellite 16 Dec 20:23:31 20:25:13 13° 62° (ENE) 20:26:56 145.860
AO-73 16 Dec 20:40:36 20:44:27 37° 263° (W) 20:48:21 145.935
DELFI C3 16 Dec 20:41:08 20:44:38 30° 68° (ENE) 20:48:09 145.870
EO-88 16 Dec 20:45:17 20:47:30 16° 64° (ENE) 20:49:44 145.990 - 145.960
BEESAT 2 16 Dec 20:54:25 20:58:12 40° 119° (ESE) 21:02:01 435.950
FO-29 16 Dec 21:03:10 21:10:03 62° 100° (E) 21:16:04 435.910
TIGRISAT 16 Dec 21:26:39 21:28:56 14° 90° (E) 21:31:13 435.000
UNISAT 6 16 Dec 21:30:11 21:32:59 17° 91° (E) 21:35:49 437.425
STRAND 1 16 Dec 21:32:43 21:37:00 28° 297° (WNW) 21:41:17 437.568
BEESAT 3 16 Dec 21:46:52 21:50:11 24° 320° (NW) 21:53:31 437.485
RS-15 16 Dec 21:54:36 22:06:06 47° 32° (NNE) 22:17:00 29.354- 29.394
Max Valier Satellite 16 Dec 21:54:58 21:58:34 56° 259° (W) 22:02:13 145.860
PCSat 16 Dec 21:57:07 21:59:35 13° 336° (NNW) 22:02:04 145.827
SO-50 16 Dec 22:08:44 22:11:56 18° 31° (NNE) 22:15:10 436.795
AO-85 16 Dec 22:12:50 22:16:42 62° 123° (ESE) 22:20:50 145.980
DELFI C3 16 Dec 22:16:02 22:19:22 25° 266° (W) 22:22:42 145.870
EO-88 16 Dec 22:17:18 22:20:47 44° 261° (W) 22:24:19 145.990 - 145.960
BEESAT 2 16 Dec 22:32:32 22:36:01 28° 319° (NW) 22:39:34 435.950
FALCONSAT 3 16 Dec 22:38:08 22:39:28 12° 168° (SSE) 22:40:49 435.103
LO-87 16 Dec 22:39:57 22:43:18 41° 72° (ENE) 22:46:39 145.935 - 145.965
FO-29 16 Dec 22:48:47 22:54:33 29° 303° (WNW) 22:59:47 435.910
ESTCUBE 1 16 Dec 22:51:57 22:56:19 49° 71° (ENE) 23:00:42 437.505/2401.250
PRISM 16 Dec 22:59:05 23:02:55 36° 98° (E) 23:06:41 437.425
AIST 2D 16 Dec 23:01:21 23:03:22 14° 91° (E) 23:05:23 435.315
SPROUT 16 Dec 23:01:36 23:04:16 17° 62° (ENE) 23:06:57 437.525
TIGRISAT 16 Dec 23:01:44 23:06:02 66° 286° (WNW) 23:10:26 435.000
UNISAT 6 16 Dec 23:05:45 23:10:01 55° 288° (WNW) 23:14:21 437.425
POLYITAN 1 16 Dec 23:37:32 23:39:40 14° 90° (E) 23:41:48 437.675
SO-50 16 Dec 23:48:28 23:53:09 77° 51° (NE) 23:57:52 436.795
AO-85 16 Dec 23:54:24 23:57:32 21° 325° (NW) 00:00:49 145.980
QB50P2 17 Dec 00:02:18 00:05:56 27° 95° (E) 00:09:32 145.880/145.840
DUCHIFAT 1 17 Dec 00:03:39 00:06:44 19° 92° (E) 00:09:48 145.980
RS-15 17 Dec 00:07:43 00:19:31 74° 240° (WSW) 00:30:39 29.354- 29.394
VELOX 1 17 Dec 00:14:18 00:18:39 54° 71° (ENE) 00:23:00 145.980
LO-87 17 Dec 00:14:55 00:16:54 14° 269° (W) 00:18:54 145.935 - 145.965
FALCONSAT 3 17 Dec 00:15:44 00:17:43 14° 184° (S) 00:19:43 435.103
ESTCUBE 1 17 Dec 00:30:05 00:33:22 20° 268° (W) 00:36:41 437.505/2401.250
NANOSAT C BR1 17 Dec 00:30:55 00:34:56 42° 99° (E) 00:38:56 145.865
AIST 2D 17 Dec 00:33:23 00:36:45 41° 288° (WNW) 00:40:06 435.315
PRISM 17 Dec 00:34:46 00:37:59 22° 296° (WNW) 00:41:09 437.425
50 SAT 17 Dec 00:35:19 00:37:14 15° 65° (ENE) 00:39:09 437.505
SPROUT 17 Dec 00:35:33 00:39:44 57° 259° (W) 00:43:55 437.525
UKube-1 17 Dec 00:42:29 00:45:19 17° 61° (ENE) 00:48:08 .
EO-79 17 Dec 00:47:53 00:52:06 74° 102° (ESE) 00:56:20 145.935-145.965
DX 1 17 Dec 01:02:11 01:06:15 39° 68° (ENE) 01:10:21 434.975-435.025
POLYITAN 1 17 Dec 01:11:40 01:15:51 63° 287° (WNW) 01:20:02 437.675
Gurwin Techsat 1B 17 Dec 01:20:18 01:23:28 16° 89° (E) 01:26:38 435.225
PCSat 17 Dec 01:28:22 01:31:38 16° 29° (NNE) 01:34:54 145.827
SO-50 17 Dec 01:30:14 01:33:04 16° 250° (WSW) 01:35:54 436.795
YUBILEINY 17 Dec 01:31:08 01:35:37 15° 72° (ENE) 01:40:08 435.215
QB50P2 17 Dec 01:37:58 01:41:42 31° 292° (WNW) 01:45:27 145.880/145.840
DUCHIFAT 1 17 Dec 01:38:36 01:42:34 42° 290° (WNW) 01:46:32 145.980
AO-91 17 Dec 01:38:38 01:41:17 20° 94° (E) 01:43:52 145.960
BEESAT 17 Dec 01:42:57 01:45:17 14° 57° (ENE) 01:47:39 436.000
VELOX 1 17 Dec 01:52:27 01:55:25 17° 269° (W) 01:58:23 145.980
Oscar 19 17 Dec 01:55:58 02:00:55 42° 98° (E) 02:05:50 437.125/150
50 SAT 17 Dec 02:06:02 02:08:55 32° 262° (W) 02:11:49 437.505
NANOSAT C BR1 17 Dec 02:07:13 02:10:23 21° 296° (WNW) 02:13:31 145.865
BUGSAT 1 17 Dec 02:08:35 02:12:39 80° 282° (WNW) 02:16:43 437.445
ITUPSAT 1 17 Dec 02:11:24 02:15:08 23° 62° (ENE) 02:18:52 437.325
UKube-1 17 Dec 02:16:39 02:20:54 57° 259° (WSW) 02:25:11 .
RS-15 17 Dec 02:22:22 02:29:39 20° 264° (W) 02:36:45 29.354- 29.394
EO-79 17 Dec 02:25:16 02:27:18 13° 301° (WNW) 02:29:21 145.935-145.965
CUBESAT XI-V 17 Dec 02:29:32 02:31:48 14° 58° (ENE) 02:34:06 437.345
MOZHAYETS 4 17 Dec 02:33:42 02:38:04 48° 70° (ENE) 02:42:29
DX 1 17 Dec 02:39:05 02:42:34 23° 266° (W) 02:46:04 434.975-435.025
BEESAT 3 17 Dec 02:45:59 02:48:07 14° 31° (NNE) 02:50:14 437.485
Gurwin Techsat 1B 17 Dec 02:58:41 03:04:02 78° 287° (WNW) 03:09:20 435.225
PCSat 17 Dec 03:10:52 03:16:14 57° 52° (NE) 03:21:33 145.827
AO-91 17 Dec 03:14:56 03:17:48 24° 293° (WNW) 03:20:36 145.960
ITAMSAT 1 17 Dec 03:15:29 03:18:06 14° 88° (E) 03:20:42 435.822/435.867
BEESAT 17 Dec 03:17:37 03:22:23 89° 257° (WSW) 03:27:10 436.000
YUBILEINY 17 Dec 03:21:58 03:30:42 70° 94° (E) 03:39:30 435.215
AO-7 17 Dec 03:29:20 03:36:50 35° 96° (E) 03:44:17 .
BEESAT 2 17 Dec 03:32:29 03:34:32 13° 30° (NNE) 03:36:34 435.950
Oscar 19 17 Dec 03:35:36 03:40:04 30° 296° (WNW) 03:44:32 437.125/150
ITUPSAT 1 17 Dec 03:48:06 03:52:40 47° 260° (W) 03:57:17 437.325
CUBESAT XI-V 17 Dec 04:03:49 04:08:29 87° 257° (WSW) 04:13:13 437.345
KKS-1 17 Dec 04:04:40 04:08:09 23° 63° (ENE) 04:11:39 437.445
MOZHAYETS 4 17 Dec 04:12:08 04:15:29 20° 268° (W) 04:18:51
BEESAT 3 17 Dec 04:22:24 04:26:22 71° 52° (NE) 04:30:14 437.485
M-CUBED/EXP-1 PRIME 17 Dec 04:26:02 04:30:28 54° 105° (ESE) 04:34:35 437.505
STARS 17 Dec 04:39:56 04:43:15 21° 63° (ENE) 04:46:34 437.465
Gurwin Techsat 1B 17 Dec 04:40:34 04:43:07 14° 306° (NW) 04:45:39 435.225
ITAMSAT 1 17 Dec 04:53:02 04:58:14 84° 287° (WNW) 05:03:25 435.822/435.867
DOVE 4 17 Dec 04:53:58 04:57:30 23° 92° (E) 05:00:54 437.250
PCSat 17 Dec 04:54:53 04:59:16 25° 251° (WSW) 05:03:37 145.827
BEESAT 17 Dec 04:59:32 05:00:50 11° 273° (W) 05:02:09 436.000
AO-85 17 Dec 05:00:32 05:04:23 25° 38° (NE) 05:08:27 145.980
BEESAT 2 17 Dec 05:09:02 05:13:04 62° 51° (NE) 05:17:00 435.950
YUBILEINY 17 Dec 05:20:45 05:28:18 31° 296° (WNW) 05:35:55 435.215
AO-7 17 Dec 05:21:48 05:30:02 62° 296° (WNW) 05:38:13 .
STRAND 1 17 Dec 05:35:57 05:38:25 14° 55° (NE) 05:40:55 437.568
FO-29 17 Dec 05:37:57 05:40:20 12° 43° (NE) 05:42:40 435.910
KKS-1 17 Dec 05:40:13 05:44:28 43° 261° (W) 05:48:44 437.445
XW-2D 17 Dec 05:41:37 05:43:11 12° 89° (E) 05:44:44 145.860 - 145.880
CUBESAT XI-V 17 Dec 05:45:38 05:46:34 10° 274° (W) 05:47:30 437.345
XW-2B 17 Dec 05:56:44 05:59:20 17° 92° (E) 06:01:54 145.730 - 145.750
M-CUBED/EXP-1 PRIME 17 Dec 06:01:04 06:04:25 21° 304° (NW) 06:07:37 437.505
BEESAT 3 17 Dec 06:01:32 06:03:20 13° 250° (WSW) 06:05:06 437.485
XW-2F 17 Dec 06:06:01 06:08:55 20° 93° (E) 06:11:49 145.980 - 146.000
